カタログに戻る

YAOGAN-43 O1H

運用中軍事VLEO
NORAD 60465·PAYLOAD·🇨🇳 China

打ち上げ Aug 16, 2024 から Xichang Satellite Launch Center

Loading…

次のパス (今後24時間)

TLE

最新Source: Space-Track

元期: Sep 14, 2026, 13:24 UTC

1 60465U 24148H   26257.55879891  .00011117  00000-0  38338-3 0  9993
2 60465  34.9873 310.4285 0007328 284.3350  75.6553 15.29167462115871

AllMySatでYAOGAN-43 O1Hをリアルタイム追跡

Download on the App Store